Flag for Pakistan Weather past 2 weeks in Lahore, Pakistan

Now
91 °F

Scattered clouds.


Feels Like: 105 °F
Forecast: 86 / 101 °F
Wind: 7 mph from Southeast

Location: Lahore Airport

Current Time: Jul 23, 2014 at 11:50:46 AM

Latest Report: Jul 23, 2014 at 9:25 AM


Visibility: 2 mi

Pressure: 29.50 "Hg

Humidity: 63%

Dew point: 77 °F

Location of LahoreLocation

Historic Weather in Lahore — Graph

°F

Lahore temperature yesterday

Maximum temperature yesterday: 102 °F (at 4:25 PM)
Minimum temperature yesterday: 86 °F (at 3:00 AM)
Average temperature yesterday: 94 °F

Past Weeks' High & Low Weather Summary

 TemperatureHumidityPressure
High109 °F (Jul 12, 2:25 PM)100% (Jul 18, 12:29 PM)29.56 "Hg (Jul 18, 12:29 PM)
Low77 °F (Jul 17, 12:59 PM)12% (Jul 21, 12:59 PM)29.33 "Hg (Jul 15, 5:55 PM)
Average92 °F58%29.46 "Hg
* Reported Jul 8 1:55 PM — Jul 23 9:25 AM, Lahore, Weather by CustomWeather, © 2014

Note: Actual official high and low records may vary slightly from our data, if they occured in-between our weather recording intervals... More about our weather records

Advertising

Lahore weather history for previous 24 hours

 ConditionsComfort  
Time TempWeatherWind HumidityBarometerVisibility
9:25 AM
Jul 23
91 °FScattered clouds.7 mph63%29.50 "Hg2 mi
8:55 AM91 °FScattered clouds.9 mph63%29.50 "Hg2 mi
8:25 AM91 °FScattered clouds.9 mph59%29.50 "Hg2 mi
7:55 AM90 °FScattered clouds.10 mph63%29.50 "Hg2 mi
7:25 AM88 °FScattered clouds.9 mph66%29.50 "Hg2 mi
6:55 AM88 °FScattered clouds.8 mph66%29.47 "Hg2 mi
6:25 AM88 °FScattered clouds.6 mph66%29.47 "Hg2 mi
5:55 AM86 °FScattered clouds.6 mph70%29.47 "Hg2 mi
4:55 AM86 °FPassing clouds.7 mph70%29.45 "Hg2 mi
9:55 PM
Jul 22
93 °FPassing clouds.5 mph56%29.47 "Hg2 mi
9:25 PM93 °FPassing clouds.7 mph53%29.47 "Hg2 mi
8:55 PM93 °FPassing clouds.6 mph53%29.45 "Hg2 mi
8:25 PM93 °FPassing clouds.7 mph53%29.45 "Hg2 mi
7:55 PM95 °FPassing clouds.7 mph50%29.45 "Hg2 mi
7:25 PM95 °FPassing clouds.7 mph53%29.45 "Hg3 mi
6:55 PM97 °FScattered clouds.7 mph50%29.45 "Hg3 mi
6:25 PM97 °FScattered clouds.6 mph50%29.45 "Hg3 mi
5:55 PM99 °FScattered clouds.7 mph47%29.45 "Hg3 mi
5:25 PM102 °FScattered clouds.7 mph42%29.45 "Hg3 mi
4:55 PM102 °FScattered clouds.7 mph42%29.45 "Hg3 mi
4:25 PM102 °FScattered clouds.6 mph42%29.45 "Hg3 mi
3:55 PM100 °FScattered clouds.6 mph45%29.45 "Hg3 mi
3:25 PM100 °FScattered clouds.8 mph45%29.45 "Hg3 mi
2:55 PM100 °FScattered clouds.6 mph45%29.47 "Hg3 mi
2:25 PM100 °FScattered clouds.6 mph47%29.47 "Hg2 mi
1:55 PM99 °FScattered clouds.5 mph50%29.47 "Hg2 mi
1:25 PM99 °FScattered clouds.5 mph50%29.47 "Hg2 mi
12:59 PM99 °FScattered clouds.8 mph50%N/A2 mi
12:29 PM97 °FScattered clouds.6 mph53%N/A2 mi
11:59 AM97 °FScattered clouds.6 mph53%N/A2 mi
11:29 AM95 °FPassing clouds.6 mph56%29.53 "Hg2 mi
Weather by CustomWeather, © 2014

See weather overviewHow to use our weather pages